K9SET Weather Reports


time (UTC)temp
F
wind
direction
speed
knots
gust
knots
rain 1hr
in
rain 24hr
in
rain mn
in
humidity
%
barometer
mb
20260503211504 66 247 7.8 14.8 0.00 0.15 0.15 35 1015.0
20260503210504 66 301 5.2 11.3 0.00 0.15 0.15 36 1014.9
20260503210005 66 250 3.5 13.0 0.00 0.15 0.15 36 1014.6
20260503205504 65 226 5.2 13.0 0.00 0.15 0.15 34 1014.7
20260503205004 66 281 4.3 12.2 0.00 0.15 0.15 35 1014.8
20260503204004 66 233 5.2 12.2 0.00 0.15 0.15 34 1015.1
20260503203505 66 263 6.1 13.0 0.00 0.15 0.15 33 1015.2
20260503203004 65 281 7.8 13.0 0.00 0.15 0.15 33 1015.3
20260503202506 65 287 6.1 13.0 0.00 0.15 0.15 36 1015.4
20260503202005 64 265 4.3 13.0 0.00 0.15 0.15 34 1015.5
20260503201004 64 241 3.5 10.4 0.00 0.15 0.15 34 1015.6
20260503200504 65 286 4.3 8.7 0.00 0.15 0.15 35 1015.8
20260503200004 65 299 4.3 11.3 0.00 0.15 0.15 32 1015.8
20260503195504 65 227 6.1 13.0 0.00 0.15 0.15 33 1016.0
20260503195004 65 221 5.2 13.0 0.00 0.15 0.15 34 1016.2
20260503194504 65 243 4.3 13.0 0.00 0.15 0.15 34 1016.2
20260503194004 65 233 4.3 13.9 0.00 0.15 0.15 33 1016.3
20260503193505 65 305 5.2 13.9 0.00 0.15 0.15 33 1016.5
20260503192505 64 260 5.2 12.2 0.00 0.15 0.15 33 1016.9
20260503192004 64 300 5.2 12.2 0.00 0.15 0.15 34 1016.8
20260503191504 64 262 2.6 11.3 0.00 0.15 0.15 35 1017.0
20260503191004 64 258 6.1 11.3 0.00 0.15 0.15 34 1017.2
20260503190504 64 304 4.3 10.4 0.00 0.15 0.15 37 1017.2
20260503185505 64 214 3.5 15.6 0.00 0.15 0.15 35 1017.4
20260503184504 64 252 6.1 11.3 0.00 0.15 0.15 32 1017.4
20260503184005 63 265 4.3 10.4 0.00 0.15 0.15 35 1017.5
20260503183505 63 201 2.6 12.2 0.00 0.15 0.15 37 1017.7
20260503183004 62 242 5.2 13.9 0.00 0.15 0.15 33 1017.8
20260503182504 62 246 6.1 13.9 0.00 0.15 0.15 34 1017.9
20260503182004 62 218 5.2 11.3 0.00 0.15 0.15 34 1018.0
20260503181506 62 233 4.3 13.0 0.00 0.15 0.15 32 1018.0
20260503181005 62 280 4.3 17.4 0.00 0.15 0.15 34 1018.2
20260503180504 62 288 8.7 17.4 0.00 0.15 0.15 32 1018.2
20260503180005 62 238 6.1 13.9 0.00 0.15 0.15 34 1018.2
20260503175504 62 260 5.2 12.2 0.00 0.15 0.15 32 1018.3
20260503175004 61 218 4.3 12.2 0.00 0.15 0.15 37 1018.4
20260503174503 61 252 3.5 12.2 0.00 0.15 0.15 34 1018.4
20260503174004 61 237 7.8 14.8 0.00 0.15 0.15 31 1018.5
20260503173504 61 238 7.8 14.8 0.00 0.15 0.15 33 1018.6
20260503173006 61 247 5.2 10.4 0.00 0.15 0.15 31 1018.6
20260503172505 61 277 4.3 13.9 0.00 0.15 0.15 45 1018.7
20260503172004 61 270 6.1 15.6 0.00 0.15 0.15 43 1018.7
20260503171004 61 218 2.6 10.4 0.00 0.15 0.15 46 1018.9
20260503170505 60 262 4.3 14.8 0.00 0.15 0.15 49 1018.9
20260503151004 79 294 6.1 11.3 0.03 0.03 0.03 32 1020.3
20260503150504 72 231 5.2 11.3 0.02 0.02 0.02 38 1020.3
20260503131007 45 143 0.0 1.7 0.00 0.00 0.00 93 1020.4
20260503130506 44 137 0.9 1.7 0.00 0.00 0.00 94 1020.3
20260503090506 32 336 0.0 0.0 0.00 0.00 0.00 93 1019.3
20260503081505 32 336 0.0 0.9 0.00 0.00 0.00 93 1019.1
20260503080506 33 336 0.0 0.9 0.00 0.00 0.00 93 1019.1
20260503072505 33 336 0.0 0.0 0.00 0.00 0.00 92 1019.0
20260503072006 33 336 0.0 0.0 0.00 0.00 0.00 92 1019.0
20260503071006 33 336 0.0 0.0 0.00 0.00 0.00 92 1019.0
20260503055005 34 336 0.0 0.0 0.00 0.00 0.00 92 1019.2
20260503054506 35 336 0.0 0.0 0.00 0.00 0.00 92 1019.4
20260503054006 35 336 0.0 0.0 0.00 0.00 0.00 92 1019.4
20260503053507 35 336 0.0 0.0 0.00 0.00 0.00 92 1019.2
20260503053006 35 336 0.0 0.0 0.00 0.00 0.00 92 1019.3
20260503052506 35 336 0.0 0.9 0.00 0.00 0.00 91 1019.3
20260503052005 35 336 0.0 0.9 0.00 0.00 0.00 91 1019.2
20260503050006 36 336 0.0 0.0 0.00 0.00 0.00 91 1019.1
20260503045505 36 336 0.0 0.0 0.00 0.00 0.00 91 1019.1
20260503045006 37 336 0.0 0.0 0.00 0.00 0.00 91 1019.1
20260503044507 37 336 0.0 0.9 0.00 0.00 0.00 91 1019.1
20260503044006 37 336 0.0 0.9 0.00 0.00 0.00 91 1019.0
20260503043506 37 336 0.0 0.9 0.00 0.00 0.00 91 1019.1
20260503043007 37 336 0.0 0.9 0.00 0.00 0.00 91 1019.1
20260503042505 37 336 0.0 0.9 0.00 0.00 0.00 91 1019.1
20260503042005 38 336 0.0 0.9 0.00 0.00 0.00 91 1019.1
20260503041507 38 336 0.0 0.0 0.00 0.00 0.00 91 1019.0
20260503041006 38 336 0.0 0.0 0.00 0.00 0.00 90 1019.1
20260503040505 38 336 0.0 0.0 0.00 0.00 0.00 90 1019.0
20260503040005 38 336 0.0 0.0 0.00 0.00 0.00 90 1019.0
20260503035505 38 336 0.0 0.0 0.00 0.00 0.00 90 1019.1
20260503035005 38 336 0.0 0.0 0.00 0.00 0.00 90 1019.1
20260503034505 38 336 0.0 0.0 0.00 0.00 0.00 90 1019.1
20260503034006 38 336 0.0 0.0 0.00 0.00 0.00 90 1019.0
20260503033007 39 336 0.0 0.0 0.00 0.00 0.00 89 1019.0
20260503032507 39 336 0.0 0.0 0.00 0.00 0.00 89 1018.9
20260503031006 40 336 0.0 0.0 0.00 0.00 0.00 89 1018.9
20260503030505 40 336 0.0 0.0 0.00 0.00 0.00 89 1018.8
20260503030005 40 336 0.0 1.7 0.00 0.00 0.00 89 1018.8
20260503025505 41 336 0.0 1.7 0.00 0.00 0.00 88 1018.8
20260503025006 41 336 0.9 1.7 0.00 0.00 0.00 88 1018.8
20260503024505 41 336 0.0 0.9 0.00 0.00 0.00 88 1018.6
20260503024007 41 336 0.0 0.0 0.00 0.00 0.00 88 1018.6
20260503023506 42 336 0.0 0.0 0.00 0.00 0.00 87 1018.6
20260503023005 42 336 0.0 0.0 0.00 0.00 0.00 87 1018.6
20260503022505 42 336 0.0 0.9 0.00 0.00 0.00 87 1018.5
20260503022007 43 336 0.0 0.9 0.00 0.00 0.00 86 1018.4
20260503021506 43 336 0.0 0.9 0.00 0.00 0.00 86 1018.4
20260503021005 43 336 0.0 0.9 0.00 0.00 0.00 86 1018.3
20260503020507 44 336 0.0 0.0 0.00 0.00 0.00 85 1018.2
20260503020005 44 336 0.0 0.0 0.00 0.00 0.00 84 1018.2
20260503015505 44 336 0.0 0.0 0.00 0.00 0.00 84 1018.2
20260503015005 45 336 0.0 0.0 0.00 0.00 0.00 83 1018.1
20260503014505 45 336 0.0 0.0 0.00 0.00 0.00 83 1017.9
20260503013006 46 336 0.0 0.0 0.00 0.00 0.00 81 1017.7
20260503012505 47 336 0.0 0.9 0.00 0.00 0.00 80 1017.6
20260503012009 47 336 0.0 0.9 0.00 0.00 0.00 80 1017.6
20260503011506 47 336 0.0 0.0 0.00 0.00 0.00 79 1017.5
20260503011005 48 336 0.0 0.9 0.00 0.00 0.00 78 1017.5
20260503010505 48 336 0.0 0.9 0.00 0.00 0.00 76 1017.4
20260503005506 50 334 0.0 0.9 0.00 0.00 0.00 75 1017.4
20260503005005 50 334 0.0 0.9 0.00 0.00 0.00 73 1017.3
20260503004505 51 334 0.0 0.9 0.00 0.00 0.00 71 1017.1
20260503004005 51 334 0.0 0.9 0.00 0.00 0.00 71 1017.1
20260503003506 51 334 0.0 0.9 0.00 0.00 0.00 70 1017.1
20260503003005 52 334 0.0 0.9 0.00 0.00 0.00 69 1017.0
20260503002505 52 334 0.0 0.9 0.00 0.00 0.00 69 1017.0
20260503002005 52 334 0.0 0.9 0.00 0.00 0.00 67 1016.9
20260503001505 52 334 0.0 0.9 0.00 0.00 0.00 68 1016.8
20260503001005 52 334 0.0 1.7 0.00 0.00 0.00 67 1016.8
20260503000505 53 334 0.0 1.7 0.00 0.00 0.00 66 1016.8
20260503000006 53 302 0.0 1.7 0.00 0.00 0.00 65 1016.8
20260502235506 53 283 0.9 1.7 0.00 0.00 0.00 64 1016.8
20260502235006 53 333 0.9 1.7 0.00 0.00 0.00 63 1016.7
20260502234006 53 343 0.0 1.7 0.00 0.00 0.00 63 1016.6
20260502233507 53 342 0.0 2.6 0.00 0.00 0.00 64 1016.6
20260502233005 53 328 0.9 2.6 0.00 0.00 0.00 64 1016.6
20260502232504 53 321 0.9 2.6 0.00 0.00 0.00 65 1016.7
20260502232005 53 13 0.9 2.6 0.00 0.00 0.00 62 1016.6
20260502231004 53 6 0.9 2.6 0.00 0.00 0.00 65 1016.8
20260502230005 54 328 0.9 2.6 0.00 0.00 0.00 62 1016.7
20260502225504 54 353 0.9 2.6 0.00 0.00 0.00 60 1016.7
20260502225005 54 337 1.7 2.6 0.00 0.00 0.00 60 1016.7
20260502224506 54 328 0.0 2.6 0.00 0.00 0.00 61 1016.7
20260502224005 54 307 2.6 7.0 0.00 0.00 0.00 58 1016.7
20260502223505 54 345 1.7 7.0 0.00 0.00 0.00 60 1016.7
20260502223005 54 354 2.6 5.2 0.00 0.00 0.00 60 1016.7
20260502222505 54 307 1.7 5.2 0.00 0.00 0.00 61 1016.7
20260502222006 54 3 1.7 5.2 0.00 0.00 0.00 62 1016.6
20260502221504 54 4 1.7 6.1 0.00 0.00 0.00 61 1016.6
20260502221005 54 31 1.7 7.0 0.00 0.00 0.00 62 1016.6
20260502220505 54 26 2.6 7.0 0.00 0.00 0.00 61 1016.6
20260502220004 54 87 0.9 4.3 0.00 0.00 0.00 60 1016.6
20260502215505 55 309 1.7 4.3 0.00 0.00 0.00 59 1016.5
20260502215005 55 1 1.7 4.3 0.00 0.00 0.00 60 1016.5
20260502214506 55 83 1.7 4.3 0.00 0.00 0.00 62 1016.4
20260502214005 55 4 1.7 6.1 0.00 0.00 0.00 61 1016.4
20260502213506 55 30 1.7 6.1 0.00 0.00 0.00 60 1016.4
20260502213006 55 15 1.7 6.1 0.00 0.00 0.00 63 1016.4
20260502212505 55 1 1.7 6.1 0.00 0.00 0.00 64 1016.4
20260502212006 55 24 1.7 6.1 0.00 0.00 0.00 64 1016.5